Weather History for Montgomery, AL

Change the Weather History Date:

Thursday, April 18, 2013

  Actual Average Record
Temperature  
Mean Temperature 75 °F 65 °F  
Max Temperature 86 °F 77 °F 91 °F (2006)
Min Temperature 63 °F 52 °F 34 °F (1997)
Degree Days  
Heating Degree Days 0 3  
Month to date heating degree days 44 75  
Since 1 July heating degree days 1892 2202  
Cooling Degree Days 10 2  
Month to date cooling degree days 69 32  
Year to date cooling degree days 102 61  
Growing Degree Days 24 (Base 50)    
Moisture  
Dew Point 63 °F    
Average Humidity 67    
Maximum Humidity 87    
Minimum Humidity 47    
Precipitation  
Precipitation 0.00 in 0.13 in 3.31 in (1901)
Month to date precipitation 3.12 2.65  
Year to date precipitation 23.26 18.53  
Snow  
Snow 0.00 in 0.00 in - ()
Month to date snowfall 0.0 0.0  
Since 1 July snowfall 0.0 0.4  
Snow Depth 0.00 in    
Sea Level Pressure  
Sea Level Pressure 29.95 in    
Wind  
Wind Speed 10 mph (SSE)    
Max Wind Speed 18 mph    
Max Gust Speed 26 mph    
Visibility 10 miles    
Events      
T = Trace of Precipitation, MM = Missing Value Source: NWS Daily Summary

Daily Weather History Graph

Daily Weather History Graph

Search for Another Location

Airport:

Trip Planner

Search our weather history database for the weather conditions in past years. The results will help you decide how hot, cold, wet, or windy it might be!

Date:

Astronomy

Apr. 18, 2013 Rise Set
Actual Time 6:12 AM CDT 7:17 PM CDT
Civil Twilight 5:47 AM CDT 7:42 PM CDT
Nautical Twilight 5:17 AM CDT 8:13 PM CDT
Astronomical Twilight 4:46 AM CDT 8:44 PM CDT
Moon 12:27 PM CDT (4/18) 1:27 AM CDT (4/18)
Length of Visible Light 13h 55m
Length of Day
13h 04m
First Quarter, 52% of the Moon is Illuminated
Apr 18
First Quarter
Apr 25
Full
May 2
Last Quarter
May 9
New
May 17
First Quarter

Hourly Weather History & Observations

Time (CDT) Temp. Heat Index Dew Point Humidity Pressure Visibility Wind Dir Wind Speed Gust Speed Precip Events Conditions
12:53 AM 68.0 °F - 62.1 °F 81% 30.04 in 10.0 mi SE 4.6 mph - N/A   Clear
1:53 AM 68.0 °F - 60.1 °F 76% 30.03 in 10.0 mi SSE 5.8 mph - N/A   Clear
2:53 AM 66.0 °F - 59.0 °F 78% 30.01 in 10.0 mi SSE 4.6 mph - N/A   Clear
3:53 AM 64.0 °F - 59.0 °F 84% 29.99 in 10.0 mi ESE 4.6 mph - N/A   Clear
4:53 AM 64.0 °F - 59.0 °F 84% 29.99 in 10.0 mi SE 5.8 mph - N/A   Clear
5:53 AM 64.9 °F - 60.1 °F 84% 29.97 in 10.0 mi SE 9.2 mph - N/A   Clear
6:53 AM 66.0 °F - 60.1 °F 81% 29.99 in 10.0 mi SE 8.1 mph - N/A   Clear
7:53 AM 70.0 °F - 62.1 °F 76% 30.01 in 10.0 mi SSE 9.2 mph - N/A   Clear
8:53 AM 73.9 °F - 63.0 °F 68% 30.02 in 10.0 mi South 11.5 mph 16.1 mph N/A   Clear
9:53 AM 78.1 °F - 64.0 °F 62% 30.01 in 10.0 mi SE 12.7 mph 17.3 mph N/A   Partly Cloudy
10:53 AM 80.1 °F 81.7 °F 64.0 °F 58% 30.00 in 10.0 mi SSE 15.0 mph - N/A   Clear
11:53 AM 81.0 °F 82.5 °F 64.0 °F 56% 29.98 in 10.0 mi SSE 13.8 mph 19.6 mph N/A   Scattered Clouds
12:53 PM 82.9 °F 84.0 °F 63.0 °F 51% 29.96 in 10.0 mi SSE 16.1 mph 26.5 mph N/A   Scattered Clouds
1:53 PM 82.9 °F 84.0 °F 63.0 °F 51% 29.95 in 10.0 mi South 12.7 mph 20.7 mph N/A   Mostly Cloudy
2:53 PM 82.9 °F 83.3 °F 61.0 °F 47% 29.92 in 10.0 mi SSE 13.8 mph - N/A   Scattered Clouds
3:53 PM 84.9 °F 85.9 °F 63.0 °F 48% 29.89 in 10.0 mi SE 12.7 mph - N/A   Scattered Clouds
4:53 PM 84.0 °F 85.4 °F 64.0 °F 51% 29.89 in 10.0 mi South 9.2 mph - N/A   Scattered Clouds
5:53 PM 82.9 °F 84.4 °F 64.0 °F 53% 29.88 in 10.0 mi South 4.6 mph - N/A   Partly Cloudy
6:53 PM 80.1 °F 81.7 °F 64.0 °F 58% 29.87 in 10.0 mi SSE 11.5 mph 20.7 mph N/A   Clear
7:53 PM 77.0 °F - 64.9 °F 66% 29.88 in 10.0 mi South 9.2 mph - N/A   Clear
8:53 PM 75.9 °F - 64.9 °F 69% 29.88 in 10.0 mi SSE 11.5 mph - N/A   Clear
9:53 PM 75.0 °F - 66.0 °F 73% 29.88 in 10.0 mi SSE 10.4 mph - N/A   Clear
10:53 PM 73.9 °F - 66.9 °F 79% 29.87 in 10.0 mi South 17.3 mph 24.2 mph N/A   Clear
11:33 PM 73.4 °F - 66.2 °F 78% 29.87 in 10.0 mi South 12.7 mph 21.9 mph N/A   Mostly Cloudy
11:53 PM 73.9 °F - 66.9 °F 79% 29.86 in 10.0 mi South 9.2 mph - N/A   Overcast